Location: Ridgway Nature & Science Center
(38.1460°N, 107.7553°W)
Time: 10:48:30
(UTC-06:00)

Hubble Space Telescope - Pass Details

Date: 11 August 2022
Orbit: 531 x 535 km, 28.5° (Epoch: 27 September)

Event Time Altitude Azimuth Distance (km) Brightness Sun altitude
Rises 20:50:01 0° 249° (WSW) 2,662 5.0 -8.2°
Reaches altitude 10° 20:52:42 10° 232° (SW) 1,772 3.8 -8.7°
Maximum altitude 20:55:46 21° 184° (S) 1,240 2.4 -9.2°
Enters shadow 20:58:30 12° 138° (SE) 1,675 2.7 -9.7°
